Regional Weather Roundup
Issued by NWS

Home | Current Version | Previous Version | Graphics & Text | Print | Product List | Glossary On
Versions: 1 2 3 4 5 6 7 8 9 10 11 12 13 14 15 16 17 18 19 20 21 22 23 24 25 26 27 28 29 30 31 32 33 34 35 36 37 38 39 40 41 42 43 44 45 46 47 48 49 50
000
ASUS45 KSLC 290610
RWRUT

UTAH REGIONAL WEATHER ROUNDUP
NATIONAL WEATHER SERVICE SALT LAKE CITY UT
1200 AM MDT FRI AUG 29 2014

UTZ001>011-023>025-290700-

NORTHERN UTAH

CITY           SKY/WX    TMP DP  RH WIND       PRES   REMARKS
HILL AFB       CLEAR     67  44  43 E16       30.12F
LOGAN          CLEAR     57  53  86 NE3       30.10S
OGDEN          CLEAR     67  44  43 S10       30.10S
PROVO AIRPORT  CLEAR     61  52  72 SE3       30.15S
SALT LAKE CITY CLEAR     68  43  40 S9        30.09S
VERNAL         PTCLDY    62  52  69 NW5       30.17S
WENDOVER       CLEAR     70  37  30 W6        30.08S
HEBER CITY     CLEAR     50  45  81 SE5       30.22S
WEST JORDAN    CLEAR     66  50  55 SW3       30.13S

$$

UTZ012>022-026-027-290700-

SOUTHERN UTAH

CITY           SKY/WX    TMP DP  RH WIND       PRES   REMARKS
BRYCE CANYON   CLEAR     47  40  76 W5        30.36S
CEDAR CITY     CLEAR     62  36  37 S6        30.19S
MILFORD        CLEAR     63  41  44 NW3       30.15S
MOAB/CYNLANDS  CLEAR     66  46  48 CALM      30.10S
PRICE          CLEAR     61  41  47 CALM      30.21F
ST GEORGE      CLEAR     79  45  29 SE3       29.99F
KANAB            N/A     64  43  45 NE3       30.19

$$

REGIONAL REPORTS     COLORADO/ARIZONA

CITY           SKY/WX    TMP DP  RH WIND       PRES   REMARKS
CRAIG, CO      CLEAR     52  48  86 CALM      30.23S
GRAND JUNCTION CLEAR     59  54  83 E8        30.15S
RIFLE          CLEAR     57  49  74 S5        30.21S
MONTROSE       CLEAR     59  47  64 SE12      30.25S
CORTEZ         CLEAR     53  47  79 NE5       30.23S
PAGE, AZ       CLEAR     75  41  29 W3        30.10S
GRAND CANYON     N/A    N/A N/A N/A MISG        N/A
KINGMAN        CLEAR     71  33  24 CALM      30.03S
FLAGSTAFF      CLEAR     51  42  71 CALM      30.32S

$$

REGIONAL REPORTS    NEVADA/IDAHO/WYOMING

CITY           SKY/WX    TMP DP  RH WIND       PRES   REMARKS
LAS VEGAS, NV  CLEAR     92  30  11 SW12      29.87S
ELY            CLEAR     57  35  43 S12       30.23S
ELKO           CLEAR     61  36  39 CALM      30.11S
POCATELLO, ID  CLEAR     73  42  32 S13       30.06S
BURLEY         CLEAR     61  50  67 S12       30.04S
EVANSTON, WY   CLEAR     56  42  59 S5        30.29F
ROCK SPRINGS   PTCLDY    60  43  53 W13       30.23S

$$



USA.gov is the U.S. government's official web portal to all federal, state and local government web resources and services.